User: anonymous   Login
Location: Unspecified
(0.0000°N, 0.0000°E)
Time: 23:45:37
(UTC+00:00)
Language:

Aussat K2 - Orbit

View from above orbital plane
View from above orbital plane
View from above satellite
View from above satellite

Ground track
Ground track

The orbit data is extracted from the following two-line orbital elements,

1 16275U 85109C   19138.63922553 -.00000123  00000-0  00000+0 0  9997
2 16275  15.1221   1.3865 0005670 315.2024  51.2271  0.99934998112229
Epoch (UTC): 18 May 2019 15:20:29
Eccentricity: 0.0005670
inclination: 15.1221°
perigee height: 35857 km
apogee height: 35905 km
right ascension of ascending node: 1.3865°
argument of perigee: 315.2024°
revolutions per day: 0.99934998
mean anomaly at epoch: 51.2271°
orbit number at epoch: 11222

The dashed part of the orbit path shows where the satellite is in the earth's shadow,  

DLR